Location: *
(2.5500°S, 65.9667°W)
Time: 16:15:07
(UTC+00:00)

Tiros 1 despin weight - All Passes

Search period start: 13 April 2024 00:00
Search period end: 23 April 2024 00:00
Orbit: 579 x 623 km, 48.2° (Epoch: 13 April)

Date Brightness Start Highest point End Pass type
(mag) Time Alt. Az. Time Alt. Az. Time Alt. Az.
13 Apr - 04:27:04 10° NNW 04:31:24 45° NE 04:35:41 10° SE night (unlit)
13 Apr - 06:10:21 10° WSW 06:12:28 13° SW 06:14:34 10° SSW night (unlit)
13 Apr - 16:31:20 10° SW 16:35:40 72° NW 16:40:03 10° NNE daylight
14 Apr - 04:37:54 10° NW 04:42:24 72° SW 04:46:53 10° SSE night (unlit)
14 Apr - 15:02:33 10° S 15:05:41 19° SE 15:08:49 10° E daylight
14 Apr - 16:42:55 10° WSW 16:46:41 28° NW 16:50:28 10° N daylight
15 Apr - 03:09:05 10° N 03:12:25 20° NE 03:15:44 10° E night (unlit)
15 Apr - 04:49:29 10° WNW 04:53:26 29° SW 04:57:20 10° S night (unlit)
15 Apr - 15:12:33 10° SSW 15:16:43 45° SE 15:20:54 10° NE daylight
15 Apr - 16:56:00 10° WNW 16:57:44 12° NW 16:59:28 10° NNW daylight
16 Apr - 03:19:04 10° NNW 03:23:26 47° NE 03:27:45 10° SE night (unlit)
16 Apr - 05:02:25 10° WSW 05:04:30 13° SW 05:06:34 10° SSW night (unlit)
16 Apr - 15:23:23 10° SW 15:27:42 70° NW 15:32:04 10° NNE daylight
17 Apr - 03:29:54 10° NW 03:34:25 70° SW 03:38:54 10° SSE night (unlit)
17 Apr - 13:54:33 10° S 13:57:42 19° SE 14:00:52 10° E daylight
17 Apr - 15:34:59 10° WSW 15:38:42 27° NW 15:42:26 10° N daylight
18 Apr - 02:01:00 10° N 02:04:24 21° NE 02:07:47 10° E night (unlit)
18 Apr - 03:41:29 10° WNW 03:45:25 29° SW 03:49:20 10° S night (unlit)
18 Apr - 14:04:33 10° SSW 14:08:43 46° SE 14:12:54 10° NE daylight
18 Apr - 15:48:11 10° WNW 15:49:44 12° NW 15:51:17 10° NNW daylight
19 Apr - 02:11:00 10° NNW 02:15:23 48° NE 02:19:46 10° SE night (unlit)
19 Apr - 03:54:27 10° WSW 03:56:28 13° SW 03:58:29 10° SSW night (unlit)
19 Apr - 14:15:24 10° SW 14:19:42 68° NW 14:24:01 10° NNE daylight
20 Apr - 02:21:49 10° NW 02:26:21 68° SW 02:30:52 10° SSE night (unlit)
20 Apr - 12:46:29 10° S 12:49:40 20° SE 12:52:51 10° E daylight
20 Apr - 14:27:00 10° WSW 14:30:40 27° NW 14:34:21 10° N daylight
21 Apr - 00:52:53 10° N 00:56:20 21° NE 00:59:46 10° E visible
21 Apr - 02:33:25 10° WNW 02:37:20 28° SW 02:41:15 10° S night (unlit)
21 Apr - 12:56:30 10° SSW 13:00:40 47° SE 13:04:51 10° NE daylight
21 Apr - 14:40:18 10° WNW 14:41:40 11° NW 14:43:02 10° NNW daylight
22 Apr - 01:02:53 10° NNW 01:07:17 49° NE 01:11:42 10° SE visible
22 Apr - 02:46:24 10° WSW 02:48:23 13° SW 02:50:21 10° SSW night (unlit)
22 Apr - 13:07:20 10° SW 13:11:37 66° NW 13:15:55 10° NNE daylight
